DW4712 Weather Reports


time (UTC)temp
C
wind
direction
speed
KPH
gust
KPH
rain 1hr
cm
rain 24hr
cm
rain mn
cm
humidity
%
barometer
mb
20260503054556 6 0 0.0 0.0 0.00 0.00 0.00 71 1017.8
20260503053037 6 0 0.0 0.0 0.00 0.00 0.00 72 1017.8
20260503051544 6 0 0.0 0.0 0.00 0.00 0.00 71 1017.7
20260503050048 6 0 0.0 0.0 0.00 0.00 0.00 71 1017.7
20260503044543 6 0 0.0 0.0 0.00 0.00 0.00 69 1017.6
20260503043041 6 0 0.0 0.0 0.00 0.00 0.00 68 1017.5
20260503041541 7 0 0.0 0.0 0.00 0.00 0.00 68 1017.4
20260503040059 7 0 0.0 0.0 0.00 0.00 0.00 68 1017.1
20260503034535 6 0 0.0 0.0 0.00 0.00 0.00 69 1017.0
20260503033042 7 0 0.0 0.0 0.00 0.00 0.00 68 1016.8
20260503031553 7 0 0.0 0.0 0.00 0.00 0.00 66 1016.8
20260503030046 7 0 0.0 0.0 0.00 0.00 0.00 66 1016.6
20260503024537 8 0 0.0 0.0 0.00 0.00 0.00 63 1016.5
20260503023046 8 0 0.0 0.0 0.00 0.00 0.00 60 1016.5
20260503021542 9 0 0.0 0.0 0.00 0.00 0.00 58 1016.4
20260503020042 10 0 0.0 3.2 0.00 0.00 0.00 52 1016.2
20260503014604 11 0 0.0 6.4 0.00 0.00 0.00 51 1016.3
20260503013038 11 0 0.0 4.8 0.00 0.00 0.00 53 1016.0
20260503011554 11 330 0.0 4.8 0.00 0.00 0.00 54 1015.7
20260503010042 12 0 0.0 4.8 0.00 0.00 0.00 53 1015.4
20260503004539 11 328 1.6 3.2 0.00 0.00 0.00 57 1015.1
20260503003048 12 0 0.0 0.0 0.00 0.00 0.00 61 1014.9
20260503001555 12 0 0.0 1.6 0.00 0.00 0.00 59 1014.6
20260503000041 12 0 0.0 3.2 0.00 0.00 0.00 61 1014.4
20260502234543 13 0 0.0 0.0 0.00 0.00 0.00 61 1014.2
20260502233045 13 0 0.0 4.8 0.00 0.00 0.00 60 1014.0
20260502231539 13 0 0.0 3.2 0.00 0.00 0.00 59 1013.7
20260502230041 13 0 0.0 0.0 0.00 0.00 0.00 57 1013.7
20260502224544 13 0 0.0 1.6 0.00 0.00 0.00 52 1013.5
20260502223036 14 0 0.0 4.8 0.00 0.00 0.00 52 1013.3
20260502221544 14 0 0.0 1.6 0.00 0.00 0.00 49 1013.2
20260502220042 14 0 1.6 4.8 0.00 0.00 0.00 47 1013.1
20260502214539 15 101 1.6 4.8 0.00 0.00 0.00 47 1012.9
20260502213043 14 0 1.6 4.8 0.00 0.00 0.00 47 1012.7
20260502211540 15 72 1.6 4.8 0.00 0.00 0.00 47 1012.7
20260502210038 14 0 1.6 4.8 0.00 0.00 0.00 46 1012.6
20260502204539 14 90 1.6 6.4 0.00 0.00 0.00 46 1012.6
20260502203034 15 65 1.6 6.4 0.00 0.00 0.00 47 1012.6
20260502201549 14 86 1.6 9.7 0.00 0.00 0.00 47 1012.7
20260502200043 14 41 0.0 6.4 0.00 0.00 0.00 46 1012.9
20260502194538 14 13 3.2 6.4 0.00 0.00 0.00 46 1013.2
20260502193041 14 303 1.6 6.4 0.00 0.00 0.00 47 1013.7
20260502191555 14 0 3.2 8.0 0.00 0.00 0.00 47 1013.9
20260502190050 13 0 0.0 6.4 0.00 0.00 0.00 51 1013.8
20260502184553 13 62 0.0 4.8 0.00 0.00 0.00 50 1013.9
20260502183059 12 131 1.6 6.4 0.00 0.00 0.00 47 1014.3
20260502181546 12 0 1.6 4.8 0.00 0.00 0.00 47 1014.5
20260502163052 11 5 3.2 8.0 0.00 0.00 0.00 51 1015.8
20260502161547 11 0 1.6 6.4 0.00 0.00 0.00 52 1016.1
20260502151544 11 0 0.0 4.8 0.00 0.00 0.00 53 1016.3
20260502123041 11 0 0.0 3.2 0.00 0.00 0.00 70 1014.9
20260502121549 11 209 0.0 3.2 0.00 0.00 0.00 70 1014.6
20260502114544 11 0 0.0 3.2 0.00 0.00 0.00 71 1014.8
20260502113043 11 338 0.0 3.2 0.00 0.00 0.00 72 1014.5
20260502111542 11 0 0.0 4.8 0.00 0.00 0.00 71 1014.6
20260502110039 11 0 0.0 3.2 0.00 0.00 0.00 71 1014.6
20260502104537 11 0 0.0 3.2 0.00 0.00 0.00 72 1014.5
20260502103039 11 0 0.0 6.4 0.00 0.00 0.00 71 1014.5
20260502101555 11 0 0.0 1.6 0.00 0.00 0.00 71 1014.4
20260502070041 11 0 0.0 0.0 0.00 0.00 0.00 84 1013.9
20260502064537 11 0 0.0 0.0 0.00 0.00 0.00 83 1014.0